Weather History for Perry, IA

Change the Weather History Date:

Thursday, August 2, 2012

  Actual Average Record
Temperature  
Mean Temperature 82 °F -  
Max Temperature 94 °F 84 °F 100 °F (1987)
Min Temperature 70 °F 60 °F 51 °F (1950)
Cooling Degree Days 17    
Growing Degree Days 32 (Base 50)    
Moisture  
Dew Point 65 °F    
Average Humidity 60    
Maximum Humidity 86    
Minimum Humidity 32    
Precipitation  
Precipitation 0.00 in - - ()
Sea Level Pressure  
Sea Level Pressure 29.82 in    
Wind  
Wind Speed 3 mph (NE)    
Max Wind Speed 9 mph    
Max Gust Speed -    
Visibility 10 miles    
Events      
Averages and records for this station are not official NWS values.
T = Trace of Precipitation, MM = Missing Value Source: NWS Daily Summary

Daily Weather History Graph

Daily Weather History Graph

Search for Another Location

Airport:

Trip Planner

Search our weather history database for the weather conditions in past years. The results will help you decide how hot, cold, wet, or windy it might be!

Date:

Astronomy

Aug. 02, 2012 Rise Set
Actual Time 6:12 AM CDT 8:33 PM CDT
Civil Twilight 5:40 AM CDT 9:04 PM CDT
Nautical Twilight 5:02 AM CDT 9:42 PM CDT
Astronomical Twilight 4:18 AM CDT 10:25 PM CDT
Moon 8:37 PM CDT (8/2) 6:51 AM CDT (8/2)
Length of Visible Light 15h 23m
Length of Day
14h 20m
Full, 100% of the Moon is Illuminated
Aug 2
Full
Aug 9
Last Quarter
Aug 17
New
Aug 24
First Quarter
Aug 31
Full

Hourly Weather History & Observations

Time (CDT) Temp. Heat Index Dew Point Humidity Pressure Visibility Wind Dir Wind Speed Gust Speed Precip Events Conditions
12:15 AM 72.5 °F - 66.6 °F 82% 29.86 in 10.0 mi Calm Calm - N/A   Clear
12:35 AM 72.0 °F - 65.8 °F 81% 29.86 in 10.0 mi Calm Calm - N/A   Clear
12:55 AM 72.0 °F - 65.7 °F 80% 29.86 in 10.0 mi Calm Calm - N/A   Clear
1:15 AM 72.0 °F - 66.2 °F 82% 29.85 in 10.0 mi Calm Calm - N/A   Clear
1:35 AM 71.8 °F - 66.2 °F 83% 29.84 in 10.0 mi Calm Calm - N/A   Clear
1:55 AM 72.3 °F - 65.3 °F 78% 29.83 in 10.0 mi Calm Calm - N/A   Clear
2:35 AM 72.1 °F - 66.0 °F 81% 29.82 in 10.0 mi ESE 3.5 mph - N/A   Clear
2:55 AM 71.4 °F - 66.2 °F 84% 29.82 in 10.0 mi Calm Calm - N/A   Clear
3:15 AM 71.8 °F - 65.3 °F 80% 29.82 in 10.0 mi NNW 5.8 mph - N/A   Clear
3:35 AM 72.5 °F - 65.3 °F 78% 29.82 in 10.0 mi Calm Calm - N/A   Clear
4:35 AM 73.4 °F - 65.3 °F 76% 29.83 in 10.0 mi North 3.5 mph - N/A   Clear
4:55 AM 72.3 °F - 65.5 °F 79% 29.83 in 10.0 mi Calm Calm - N/A   Clear
5:15 AM 72.3 °F - 65.7 °F 79% 29.83 in 10.0 mi NNE 4.6 mph - N/A   Clear
5:35 AM 72.7 °F - 65.5 °F 78% 29.83 in 10.0 mi Calm Calm - N/A   Clear
5:55 AM 70.9 °F - 65.8 °F 84% 29.82 in 10.0 mi Calm Calm - N/A   Clear
6:15 AM 70.9 °F - 65.7 °F 83% 29.82 in 4.0 mi Calm Calm - N/A   Haze
6:35 AM 70.3 °F - 65.7 °F 85% 29.82 in 10.0 mi Calm Calm - N/A   Clear
6:55 AM 70.7 °F - 66.2 °F 86% 29.83 in 10.0 mi Calm Calm - N/A   Clear
7:15 AM 71.6 °F - 67.1 °F 86% 29.83 in 10.0 mi Calm Calm - N/A   Clear
7:35 AM 72.9 °F - 67.1 °F 82% 29.83 in 10.0 mi Calm Calm - N/A   Clear
7:55 AM 73.9 °F - 67.1 °F 79% 29.82 in 10.0 mi Calm Calm - N/A   Clear
8:15 AM 75.6 °F - 66.4 °F 73% 29.82 in 10.0 mi Calm Calm - N/A   Clear
8:35 AM 76.1 °F - 66.7 °F 73% 29.84 in 10.0 mi NW 5.8 mph - N/A   Clear
8:55 AM 78.6 °F - 65.8 °F 65% 29.84 in 10.0 mi North 9.2 mph - N/A   Clear
9:15 AM 80.2 °F 81.9 °F 64.2 °F 58% 29.84 in 10.0 mi North 3.5 mph - N/A   Clear
9:35 AM 81.5 °F 83.1 °F 64.2 °F 56% 29.84 in 10.0 mi NE 3.5 mph - N/A   Clear
9:55 AM 81.9 °F 83.4 °F 64.4 °F 55% 29.84 in 10.0 mi NE 5.8 mph - N/A   Clear
10:15 AM 82.8 °F 84.3 °F 64.8 °F 54% 29.84 in 10.0 mi NE 4.6 mph - N/A   Clear
10:35 AM 83.8 °F 85.3 °F 64.4 °F 52% 29.84 in 10.0 mi Calm Calm - N/A   Clear
10:55 AM 84.7 °F 86.3 °F 64.6 °F 51% 29.83 in 10.0 mi North 4.6 mph - N/A   Clear
11:35 AM 87.3 °F 88.9 °F 64.9 °F 47% 29.83 in 10.0 mi North 5.8 mph - N/A   Clear
11:55 AM 87.8 °F 89.7 °F 65.1 °F 47% 29.82 in 10.0 mi NNE 4.6 mph - N/A   Clear
12:15 PM 88.7 °F 91.1 °F 66.0 °F 47% 29.82 in 10.0 mi NE 9.2 mph - N/A   Clear
12:35 PM 89.6 °F 91.1 °F 64.4 °F 43% 29.82 in 10.0 mi NE 4.6 mph - N/A   Clear
12:55 PM 90.1 °F 91.6 °F 63.9 °F 42% 29.82 in 10.0 mi NNE 8.1 mph - N/A   Clear
1:15 PM 90.5 °F 91.8 °F 63.5 °F 41% 29.82 in 10.0 mi NE 8.1 mph - N/A   Clear
1:35 PM 91.2 °F 92.9 °F 64.8 °F 41% 29.82 in 10.0 mi NE 4.6 mph - N/A   Clear
1:55 PM 91.6 °F 93.5 °F 64.8 °F 41% 29.82 in 10.0 mi ENE 6.9 mph - N/A   Clear
2:15 PM 91.9 °F 92.9 °F 63.3 °F 38% 29.82 in 10.0 mi East 3.5 mph - N/A   Clear
2:35 PM 92.7 °F 93.6 °F 62.6 °F 37% 29.82 in 10.0 mi East 8.1 mph - N/A   Clear
2:55 PM 92.8 °F 93.5 °F 62.4 °F 36% 29.81 in 10.0 mi NNE 9.2 mph - N/A   Clear
3:15 PM 93.6 °F 94.2 °F 62.1 °F 35% 29.81 in 10.0 mi NE 4.6 mph - N/A   Clear
3:55 PM 93.6 °F 94.2 °F 61.7 °F 35% 29.81 in 10.0 mi NE 4.6 mph - N/A   Clear
4:15 PM 94.1 °F 95.0 °F 62.2 °F 35% 29.80 in 10.0 mi Calm Calm - N/A   Clear
4:35 PM 94.1 °F 94.6 °F 61.9 °F 34% 29.80 in 10.0 mi NE 4.6 mph - N/A   Clear
5:15 PM 94.1 °F 94.6 °F 61.7 °F 34% 29.80 in 10.0 mi ENE 4.6 mph - N/A   Clear
5:35 PM 94.1 °F 93.9 °F 60.4 °F 32% 29.80 in 10.0 mi ENE 4.6 mph - N/A   Clear
5:55 PM 93.0 °F 93.4 °F 61.3 °F 35% 29.80 in 10.0 mi NE 5.8 mph - N/A   Clear
6:15 PM 92.5 °F 92.6 °F 61.5 °F 35% 29.79 in 10.0 mi NE 5.8 mph - N/A   Clear
6:35 PM 91.9 °F 92.5 °F 62.6 °F 37% 29.79 in 10.0 mi NNE 4.6 mph - N/A   Clear
6:55 PM 91.4 °F 92.1 °F 62.4 °F 38% 29.79 in 10.0 mi NE 4.6 mph - N/A   Clear
7:15 PM 90.1 °F 91.6 °F 64.4 °F 42% 29.79 in 10.0 mi NNE 5.8 mph - N/A   Clear
7:35 PM 89.1 °F 91.0 °F 64.9 °F 45% 29.80 in 10.0 mi NNE 5.8 mph - N/A   Clear
7:55 PM 87.8 °F 89.7 °F 65.3 °F 47% 29.80 in 10.0 mi NNE 4.6 mph - N/A   Clear
8:15 PM 86.4 °F 88.1 °F 65.3 °F 49% 29.80 in 10.0 mi NE 5.8 mph - N/A   Clear
8:35 PM 84.6 °F 86.6 °F 65.8 °F 53% 29.81 in 10.0 mi NNE 4.6 mph - N/A   Clear
8:55 PM 83.3 °F 85.7 °F 66.4 °F 57% 29.81 in 10.0 mi NE 4.6 mph - N/A   Clear
9:15 PM 82.0 °F 84.5 °F 66.7 °F 60% 29.82 in 10.0 mi NE 3.5 mph - N/A   Clear
9:35 PM 81.5 °F 84.1 °F 67.5 °F 62% 29.83 in 10.0 mi NE 4.6 mph - N/A   Clear
9:55 PM 81.1 °F 83.7 °F 67.6 °F 63% 29.83 in 10.0 mi NNE 4.6 mph - N/A   Clear
10:15 PM 79.2 °F - 68.7 °F 70% 29.85 in 10.0 mi North 4.6 mph - N/A   Clear
10:35 PM 79.3 °F - 68.5 °F 69% 29.85 in 10.0 mi North 3.5 mph - N/A   Clear
10:55 PM 79.2 °F - 67.8 °F 68% 29.85 in 10.0 mi NNE 4.6 mph - N/A   Clear
11:15 PM 77.7 °F - 68.2 °F 72% 29.85 in 10.0 mi NNE 4.6 mph - N/A   Clear
11:35 PM 77.9 °F - 68.0 °F 71% 29.85 in 10.0 mi NNE 4.6 mph - N/A   Clear
11:55 PM 77.7 °F - 67.8 °F 71% 29.84 in 10.0 mi NNE 4.6 mph - N/A   Clear